Location: Salobral
(40.6118°N, 4.8101°W)
Time: 12:54:46
(UTC+00:00)

Daily predictions for brighter satellites

Satellite Brightness Start Highest point End
(mag) Time Altitude Azimuth Time Altitude Azimuth Time Altitude Azimuth
TSX-5 4.4 20:18:32 10° S 20:22:45 58° ESE 20:28:13 10° NNE
Lacrosse 5 1.9 20:20:15 10° NW 20:25:24 89° SW 20:30:30 10° SE
Cosmos 1709 Rocket 4.1 20:20:34 10° N 20:26:50 74° E 20:33:07 10° SSE
MetOp-A 4.0 20:29:00 10° S 20:33:24 71° WSW 20:38:14 10° NNW
Cosmos 2315 Rocket 4.1 20:27:41 10° S 20:34:01 84° E 20:40:19 10° N
OBJECT-B 3.5 20:33:22 10° SW 20:35:06 15° W 20:36:51 10° WNW
Cosmos 1544 Rocket 3.8 20:33:34 10° N 20:37:49 52° E 20:42:04 10° SSE
PSLV R/B 4.0 20:34:49 10° NNE 20:38:58 65° E 20:43:06 10° S
Cosmos 1833 Rocket 3.1 20:34:43 10° S 20:39:54 41° ESE 20:45:08 10° NE
Tiangong 2.6 20:39:00 10° W 20:41:42 26° SSW 20:44:13 11° SSE
Cosmos 1703 4.3 20:39:16 10° SSE 20:42:29 26° E 20:45:44 10° NNE
NOSS 2-1 (C) 4.3 20:37:48 10° NW 20:42:39 87° NE 20:49:36 10° SSE
IRS-1A Rocket 4.5 20:37:11 10° SSE 20:43:02 68° ENE 20:48:52 10° N
NOSS 2-1 (D) 4.4 20:48:14 10° NW 20:53:09 79° WSW 20:59:49 11° SSE
Cosmos 1025 Rocket 4.2 20:51:49 10° SSW 20:55:53 44° WNW 21:00:02 10° N
RESURS DK-1 3.0 20:52:04 10° NNW 20:56:02 42° ENE 20:59:05 16° SE
ASTRO E2 4.5 20:57:59 10° SSW 20:59:58 14° SSE 21:00:13 13° SSE
X-37B 1.5 21:01:05 10° WNW 21:03:46 39° NNE 21:06:14 11° E
Helios 1A Rocket 4.3 21:03:01 15° ESE 21:05:22 24° ENE 21:08:40 10° NNE
SL-8 R/B 4.1 21:01:23 10° NW 21:06:08 59° NNE 21:10:19 13° ESE
Delta 2 Rocket 3.5 21:04:05 10° WSW 21:07:10 34° S 21:08:47 21° SE
Cosmos 1271 Rocket 3.3 21:07:03 10° NNW 21:10:57 58° W 21:14:46 10° S
Cosmos 1741 Rocket 4.2 21:05:56 10° NNW 21:11:14 63° ENE 21:15:09 18° SSE
Cosmos 2154 Rocket 4.5 21:07:13 10° N 21:13:06 43° ENE 21:17:21 18° SE
IRAS Rocket 4.2 21:07:35 10° NNE 21:13:11 76° ESE 21:18:42 10° S
Ariane Rocket 3.0 21:09:13 12° SSE 21:14:00 85° WSW 21:19:07 10° NNW
Cosmos 1455 2.8 21:11:52 10° NNW 21:15:36 54° W 21:19:19 10° S
Cosmos 2082 Rocket 2.9 21:11:42 14° SSE 21:15:57 33° ESE 21:20:59 10° NE
SPOT 3 Rocket 3.6 21:15:15 17° SSE 21:19:15 68° ENE 21:24:27 10° N
CZ-2C R/B 4.4 21:19:20 10° NNE 21:23:27 33° E 21:25:23 23° SE
Cosmos 2228 3.2 21:20:53 10° N 21:25:02 54° E 21:27:18 25° SSE
Resurs 01 Rocket 2.9 21:25:09 10° SSW 21:29:16 37° W 21:33:24 10° NNW
ATLAS 2AS CENTAUR R/B 3.7 21:28:27 10° NW 21:34:43 38° WSW 21:40:07 12° S
Meteor 1-21 Rocket 4.2 21:30:05 13° S 21:35:09 75° E 21:40:50 10° NNE
GEOS 3 Rocket 4.0 21:33:50 20° SSE 21:37:13 53° WSW 21:42:14 10° NW
Cosmos 1850 Rocket 4.1 21:32:18 10° NNW 21:37:29 72° WSW 21:40:52 22° S
Cosmos 1331 Rocket 4.2 21:33:25 10° SSW 21:38:42 75° WNW 21:44:02 10° NNE
SPOT 5 2.6 21:37:57 28° SSE 21:40:08 66° ENE 21:44:26 10° N
CZ-4B R/B 3.7 21:39:26 10° NNW 21:41:37 20° WNW 21:43:49 10° WSW
Terra 2.3 21:39:42 27° SE 21:41:55 47° ENE 21:46:29 10° N
Molniya-1 4.5 21:39:57 10° SSW 21:43:54 66° ESE 21:54:53 10° NE
Cosmos 2184 Rocket 4.1 21:38:00 10° N 21:44:11 79° W 21:48:56 18° S
Cosmos 1892 4.0 21:44:18 23° E 21:44:19 23° E 21:47:19 10° NE
Spot 2 Rocket 3.5 21:41:30 26° SSE 21:44:25 77° ENE 21:49:32 10° N
Cosmos 1656 4.5 21:40:44 10° NW 21:45:56 44° WSW 21:49:52 17° S
USA 245 3.8 21:49:42 24° S 21:51:57 52° WSW 21:55:20 10° NNW
ASTEX 1 4.3 21:53:15 10° NNE 21:57:43 32° E 21:58:45 29° ESE
Cosmos 1606 Rocket 3.4 21:54:13 10° N 21:58:34 83° E 22:00:09 39° SSE
ARIANE 5 R/B 3.0 21:58:45 37° SE 22:00:08 51° ENE 22:04:26 10° N
Cosmos 1697 Rocket 2.8 21:57:13 10° NNW 22:02:48 71° WSW 22:05:32 31° S
Cosmos 1980 Rocket 2.4 21:57:26 10° NNW 22:03:03 58° ENE 22:05:29 33° SE
SL-16 R/B 4.2 22:00:08 10° N 22:03:55 18° NE 22:07:09 12° E
GP-B 4.0 22:00:29 10° NNE 22:04:29 32° E 22:05:00 31° E
ERS-1 Rocket 3.0 22:02:19 32° S 22:04:44 80° WSW 22:09:48 10° NNW
Lacrosse 5 4.1 22:05:14 10° W 22:07:40 13° WSW 22:10:05 10° SW
ATLAS 5 CENTAUR R/B 1.4 22:08:26 48° E 22:08:26 48° E 22:11:55 10° NE
ATLAS 5 CENTAUR R/B 4.4 22:02:50 10° NW 22:08:07 19° W 22:10:55 10° SW
Meteor 2-1 Rocket 4.2 22:02:53 10° NNW 22:08:24 79° W 22:11:11 31° S
Cosmos 2369 3.7 22:03:23 10° NNW 22:09:08 74° ENE 22:11:30 37° SE
Cosmos 1302 Rocket 4.0 22:06:00 17° SSW 22:10:00 81° WNW 22:15:13 10° NNE
Cosmos 2341 Rocket 4.2 22:06:50 10° N 22:13:04 59° E 22:15:35 35° SE
COSMOS 2406 3.7 22:07:24 10° SW 22:13:04 60° WNW 22:18:47 10° NNE
In-Cosmos 22 Rocket 4.4 22:14:44 38° SE 22:16:17 49° E 22:21:31 10° NNE
Cosmos 1408 2.2 22:19:29 83° E 22:19:29 83° E 22:22:54 10° N
Okean 1-7 Rocket 4.2 22:19:49 39° E 22:20:02 39° E 22:24:13 10° NNE
Cosmos 1726 Rocket 3.6 22:16:33 10° NNW 22:20:52 73° W 22:22:00 47° SSW
ASTRO F (AKARI) 4.4 22:22:58 80° E 22:23:01 80° ENE 22:26:32 10° N
Cosmos 968 Rocket 3.4 22:19:43 10° NNW 22:24:58 89° ENE 22:26:32 47° SSE
Cosmos 1869 4.4 22:23:23 10° NNE 22:26:47 31° ENE 22:26:47 31° ENE
Cosmos 1825 2.9 22:28:50 40° ENE 22:28:50 40° ENE 22:31:51 10° NNE
Meteor 1-27 4.5 22:28:12 10° N 22:33:38 53° ENE 22:35:01 42° ESE
Cosmos 2181 Rocket 3.9 22:34:39 42° SSE 22:36:50 72° E 22:43:03 10° NNE
Cosmos 2322 Rocket 3.9 22:34:25 10° N 22:38:55 23° NE 22:41:25 18° E
X-37B 2.8 22:36:34 10° WNW 22:37:26 17° W 22:37:26 17° W
USA 267 3.1 22:34:07 10° NE 22:40:37 66° SE 22:45:35 18° SSW
Cosmos 2344 4.4 22:31:41 10° NW 22:41:09 80° WSW 22:48:14 32° SSE
Cosmos 2084 Rocket 4.0 22:39:43 10° NW 22:43:24 41° WSW 22:43:24 41° WSW
Cosmos 1867 3.5 22:39:31 10° NW 22:45:00 80° WSW 22:46:12 56° SSE
Cosmos 1602 Rocket 4.1 22:48:54 42° ENE 22:48:54 42° ENE 22:52:35 10° NNE
Cosmos 2278 3.6 22:45:42 10° NNW 22:51:27 84° ENE 22:52:47 55° SSE
SAR-Lupe-4 4.0 22:52:05 10° N 22:55:19 61° NW 22:55:19 61° NW
Cosmos 2082 Rocket 3.6 22:54:43 10° SW 22:59:56 36° WNW 23:05:09 10° N
ALOS 2 4.1 23:00:42 25° ENE 23:00:56 26° ENE 23:04:33 10° NNE
Gbstr 26 Del rocket 4.4 23:05:11 27° ENE 23:05:11 27° ENE 23:07:33 10° ENE
Nadezhda 3 Rocket 4.4 23:02:12 41° ESE 23:03:08 44° E 23:08:56 10° NNE
Cosmos 2058 Rocket 4.1 23:07:00 10° NNW 23:11:02 35° W 23:11:35 34° WSW
Cosmos 1626 Rocket 3.7 23:10:58 63° W 23:11:05 64° W 23:15:25 10° N
Cosmos 1633 3.7 23:12:29 37° NNE 23:12:29 37° NNE 23:14:43 10° N
Cosmos 1606 4.3 23:08:38 10° NNE 23:11:18 27° NE 23:11:18 27° NE
USA 234 4.4 23:07:13 10° E 23:13:10 39° NNE 23:19:09 10° NW
Cosmos 2360 Rocket 3.6 23:09:22 10° N 23:14:13 28° NE 23:16:14 23° E
SL-8 Rocket 4.4 23:09:56 10° NNW 23:15:56 53° W 23:17:50 39° SW
Terra 3.8 23:18:35 16° WSW 23:19:54 17° W 23:23:05 10° NW
Cosmos 1825 Rocket 4.4 23:24:44 39° ENE 23:24:44 39° ENE 23:28:03 10° NNE
Cosmos 1486 Rocket 4.1 23:20:13 10° NNW 23:25:21 60° WSW 23:25:43 58° SW
SJ 16-02 1.9 23:22:19 10° N 23:26:24 49° ENE 23:26:24 49° ENE
Cosmos 2058 4.0 23:28:04 37° NE 23:28:04 37° NE 23:31:05 10° NNE
H-2A R/B 4.2 23:23:37 10° NNE 23:26:52 46° NE 23:26:52 46° NE
Meteor 2-20 4.3 23:30:58 61° SSW 23:32:10 86° W 23:38:17 10° N
Cosmos 2237 4.4 23:28:02 10° NNW 23:33:42 59° ENE 23:34:40 52° ESE
Cosmos 2221 4.3 23:36:59 10° NNE 23:40:15 23° ENE 23:40:15 23° ENE
ADEOS Rocket 3.5 23:42:56 50° SSE 23:45:06 79° ENE 23:52:51 10° N
Cosmos 1980 Rocket 3.9 23:42:39 10° NW 23:46:30 19° W 23:47:14 19° WSW
SL-4 R/B 3.5 23:49:36 28° NNE 23:49:36 28° NNE 23:51:39 10° NE
SL-16 R/B 2.1 23:42:58 10° NNW 23:48:39 75° WSW 23:49:00 72° SW
ERS-2 4.0 23:45:46 10° NNE 23:47:29 24° NE 23:47:29 24° NE
Cosmos 2219 Rocket 4.0 23:46:00 10° N 23:50:35 24° NE 23:53:13 18° E
ATLAS 5 CENTAUR R/B 4.1 23:50:33 10° WNW 23:52:59 16° NW 23:55:34 10° N
Cosmos 1354 Rocket 4.0 23:49:15 10° NNW 23:54:30 70° WSW 23:54:30 70° WSW
